GW3577 Weather Reports


Display with metric or nautical units.
time (UTC)temp
F
wind
direction
speed
MPH
gust
MPH
rain 1hr
in
rain 24hr
in
rain mn
in
humidity
%
barometer
mb
20260502220232 61 130 0.0 0.0 0.00 0.00 0.00 41 1012.0
20260502215729 60 130 2.0 2.0 0.00 0.00 0.00 40 1012.0
20260502215226 60 130 2.0 3.0 0.00 0.00 0.00 40 1012.0
20260502214724 61 221 2.0 3.0 0.00 0.00 0.00 41 1012.0
20260502214221 61 110 1.0 2.0 0.00 0.00 0.00 42 1011.6
20260502213718 61 111 2.0 5.0 0.00 0.00 0.00 40 1011.6
20260502213215 62 145 3.0 4.0 0.00 0.00 0.00 41 1011.6
20260502212714 61 125 4.0 6.0 0.00 0.00 0.00 41 1011.6
20260502212212 60 132 4.0 6.0 0.00 0.00 0.00 41 1012.0
20260502211708 61 150 4.0 7.0 0.00 0.00 0.00 42 1011.6
20260502211205 61 136 4.0 6.0 0.00 0.00 0.00 43 1011.6
20260502210702 61 128 5.0 6.0 0.00 0.00 0.00 40 1011.6
20260502210159 61 130 3.0 4.0 0.00 0.00 0.00 41 1011.6
20260502205656 61 157 5.0 8.0 0.00 0.00 0.00 40 1011.6
20260502205147 61 107 5.0 8.0 0.00 0.00 0.00 40 1011.6
20260502204643 61 126 4.0 7.0 0.00 0.00 0.00 40 1011.6
20260502204141 61 100 5.0 8.0 0.00 0.00 0.00 39 1011.6
20260502203638 61 102 6.0 10.0 0.00 0.00 0.00 40 1011.6
20260502203136 62 133 5.0 11.0 0.00 0.00 0.00 41 1011.6
20260502202631 63 159 4.0 11.0 0.00 0.00 0.00 37 1011.3
20260502202129 63 221 2.0 3.0 0.00 0.00 0.00 36 1011.6
20260502201625 65 22 0.0 0.0 0.00 0.00 0.00 31 1011.6
20260502201122 66 47 2.0 4.0 0.00 0.00 0.00 32 1011.6
20260502200618 63 225 1.0 3.0 0.00 0.00 0.00 35 1011.6
20260502200116 63 248 2.0 5.0 0.00 0.00 0.00 34 1012.0
20260502195614 63 300 0.0 4.0 0.00 0.00 0.00 36 1011.6
20260502195109 63 234 4.0 6.0 0.00 0.00 0.00 35 1012.0
20260502194606 64 225 4.0 5.0 0.00 0.00 0.00 36 1012.0
20260502194056 65 225 1.0 6.0 0.00 0.00 0.00 34 1011.6
20260502193554 65 251 0.0 2.0 0.00 0.00 0.00 35 1011.6
20260502193050 65 208 4.0 11.0 0.00 0.00 0.00 36 1011.6
20260502192546 65 262 4.0 7.0 0.00 0.00 0.00 35 1011.6
20260502192043 64 119 2.0 4.0 0.00 0.00 0.00 35 1011.6
20260502191541 64 137 4.0 7.0 0.00 0.00 0.00 35 1011.6
20260502191038 65 208 4.0 6.0 0.00 0.00 0.00 35 1012.0
20260502190536 65 248 4.0 6.0 0.00 0.00 0.00 36 1012.0
20260502190032 64 127 2.0 4.0 0.00 0.00 0.00 35 1012.0
20260502185527 65 118 2.0 5.0 0.00 0.00 0.00 36 1012.0
20260502185025 63 349 3.0 6.0 0.00 0.00 0.00 35 1012.3
20260502184520 64 117 5.0 8.0 0.00 0.00 0.00 35 1012.0
20260502184017 63 98 6.0 9.0 0.00 0.00 0.00 36 1012.3
20260502183513 63 110 6.0 9.0 0.00 0.00 0.00 35 1012.3
20260502183009 65 249 0.0 1.0 0.00 0.00 0.00 34 1012.3
20260502182504 66 145 2.0 5.0 0.00 0.00 0.00 33 1012.3
20260502182000 66 65 1.0 4.0 0.00 0.00 0.00 31 1012.3
20260502181458 66 258 2.0 5.0 0.00 0.00 0.00 32 1012.6
20260502180957 65 298 1.0 6.0 0.00 0.00 0.00 36 1012.6
20260502180453 64 210 0.0 0.0 0.00 0.00 0.00 33 1012.6
20260502170407 63 178 3.0 7.0 0.00 0.00 0.00 37 1013.7
20260502163849 60 145 5.0 7.0 0.00 0.00 0.00 37 1014.0
20260502163346 61 185 4.0 7.0 0.00 0.00 0.00 36 1014.0
20260502162844 62 191 3.0 7.0 0.00 0.00 0.00 37 1014.0
20260502162340 60 102 5.0 9.0 0.00 0.00 0.00 39 1014.0
20260502161838 59 70 5.0 8.0 0.00 0.00 0.00 38 1014.3
20260502161333 60 120 7.0 11.0 0.00 0.00 0.00 39 1014.3
20260502160832 60 104 5.0 8.0 0.00 0.00 0.00 38 1014.3
20260502160330 60 148 0.0 2.0 0.00 0.00 0.00 38 1014.3
20260502152305 60 146 3.0 4.0 0.00 0.00 0.00 35 1014.7
20260502151802 60 61 2.0 4.0 0.00 0.00 0.00 35 1014.7
20260502151259 61 60 4.0 6.0 0.00 0.00 0.00 38 1014.7
20260502150757 60 159 2.0 4.0 0.00 0.00 0.00 36 1014.7
20260502150253 60 343 0.0 3.0 0.00 0.00 0.00 35 1014.7
20260502130642 55 139 0.0 1.0 0.00 0.00 0.00 41 1015.0
20260502130139 54 139 0.0 0.0 0.00 0.00 0.00 44 1015.4
20260502123625 53 139 0.0 2.0 0.00 0.00 0.00 48 1014.7
20260502123121 53 139 0.0 0.0 0.00 0.00 0.00 49 1014.7
20260502122618 53 139 0.0 0.0 0.00 0.00 0.00 47 1014.7
20260502122115 53 139 2.0 2.0 0.00 0.00 0.00 50 1014.7
20260502121613 53 77 0.0 0.0 0.00 0.00 0.00 49 1014.3
20260502121110 53 77 0.0 0.0 0.00 0.00 0.00 52 1014.3
20260502120606 52 77 0.0 0.0 0.00 0.00 0.00 49 1014.3
20260502115601 53 77 0.0 0.0 0.00 0.00 0.00 52 1014.3
20260502115102 53 76 0.0 0.0 0.00 0.00 0.00 52 1014.3
20260502114558 53 76 0.0 2.0 0.00 0.00 0.00 47 1014.3
20260502114055 52 76 0.0 0.0 0.00 0.00 0.00 48 1014.3
20260502113553 52 96 3.0 5.0 0.00 0.00 0.00 53 1014.3
20260502113051 51 292 0.0 0.0 0.00 0.00 0.00 55 1014.3
20260502112549 51 292 0.0 0.0 0.00 0.00 0.00 60 1014.0
20260502112046 50 292 0.0 0.0 0.00 0.00 0.00 61 1014.3
20260502111543 50 292 0.0 0.0 0.00 0.00 0.00 55 1014.0
20260502111041 50 292 0.0 0.0 0.00 0.00 0.00 54 1014.0
20260502110539 49 261 2.0 4.0 0.00 0.00 0.00 62 1014.3
20260502110036 49 312 0.0 0.0 0.00 0.00 0.00 67 1014.0
20260502105533 49 312 1.0 4.0 0.00 0.00 0.00 65 1014.0
20260502105030 49 312 0.0 3.0 0.00 0.00 0.00 64 1014.3
20260502104527 50 312 4.0 7.0 0.00 0.00 0.00 54 1014.3
20260502104025 50 301 2.0 5.0 0.00 0.00 0.00 56 1014.3
20260502103522 50 290 0.0 0.0 0.00 0.00 0.00 57 1014.3
20260502103020 51 290 3.0 6.0 0.00 0.00 0.00 50 1014.3
20260502102516 50 247 0.0 0.0 0.00 0.00 0.00 54 1014.3
20260502102013 50 247 0.0 3.0 0.00 0.00 0.00 56 1014.3
20260502101511 51 247 0.0 2.0 0.00 0.00 0.00 52 1014.3
20260502101010 52 247 2.0 4.0 0.00 0.00 0.00 48 1014.3
20260502100508 52 7 0.0 0.0 0.00 0.00 0.00 47 1014.0
20260502091442 51 309 1.0 4.0 0.00 0.00 0.00 57 1014.0
20260502090939 51 334 3.0 6.0 0.00 0.00 0.00 59 1014.0
20260502090436 51 324 4.0 5.0 0.00 0.00 0.00 59 1014.0
20260502071331 53 324 5.0 8.0 0.00 0.00 0.00 58 1013.3
20260502070829 53 306 6.0 8.0 0.00 0.00 0.00 59 1013.3
20260502070326 54 307 5.0 7.0 0.00 0.00 0.00 57 1013.3
20260502065825 54 311 6.0 9.0 0.00 0.00 0.00 57 1013.3
20260502065323 54 292 7.0 9.0 0.00 0.00 0.00 58 1013.3
20260502064820 54 320 5.0 10.0 0.00 0.00 0.00 58 1013.3
20260502064318 54 329 4.0 5.0 0.00 0.00 0.00 61 1013.3
20260502063815 54 6 0.0 0.0 0.00 0.00 0.00 60 1013.3
20260502063313 54 225 0.0 0.0 0.00 0.00 0.00 59 1013.7
20260502062810 54 225 0.0 2.0 0.00 0.00 0.00 60 1013.3
20260502062307 54 252 2.0 4.0 0.00 0.00 0.00 60 1013.3
20260502061806 55 295 0.0 3.0 0.00 0.00 0.00 59 1013.3
20260502061304 56 338 3.0 5.0 0.00 0.00 0.00 55 1013.7
20260502060759 55 18 3.0 6.0 0.00 0.00 0.00 56 1013.7
20260502060254 54 9 4.0 7.0 0.00 0.00 0.00 62 1013.7
20260502055753 55 336 1.0 4.0 0.00 0.00 0.00 63 1013.7
20260502055251 55 354 4.0 7.0 0.00 0.00 0.00 60 1013.7
20260502054750 56 349 3.0 4.0 0.00 0.00 0.00 59 1013.7
20260502054247 56 313 6.0 7.0 0.00 0.00 0.00 57 1013.7
20260502053744 56 355 4.0 7.0 0.00 0.00 0.00 58 1013.7
20260502053241 55 5 4.0 5.0 0.00 0.00 0.00 61 1013.7
20260502052739 54 24 2.0 5.0 0.00 0.00 0.00 70 1013.7
20260502052237 53 336 3.0 5.0 0.00 0.00 0.00 70 1013.7
20260502051735 52 29 1.0 4.0 0.00 0.00 0.00 81 1013.7
20260502051233 52 56 0.0 0.0 0.00 0.00 0.00 80 1013.7
20260502050729 52 53 2.0 5.0 0.00 0.00 0.00 82 1013.7
20260502050225 52 68 1.0 4.0 0.00 0.00 0.00 82 1013.7
20260502045723 51 4 3.0 6.0 0.00 0.00 0.00 87 1013.3
20260502045219 51 302 0.0 0.0 0.00 0.00 0.00 88 1013.7
20260502044716 50 302 4.0 7.0 0.00 0.00 0.00 89 1013.3
20260502044212 50 302 0.0 0.0 0.00 0.00 0.00 89 1013.7
20260502043710 50 316 4.0 6.0 0.00 0.00 0.00 90 1013.7
20260502043208 50 327 0.0 0.0 0.00 0.00 0.00 90 1013.7
20260502042707 51 327 0.0 0.0 0.00 0.00 0.00 90 1013.7
20260502042204 51 327 0.0 0.0 0.00 0.00 0.00 90 1013.7
20260502041702 51 327 0.0 0.0 0.00 0.00 0.00 89 1013.3
20260502041159 51 327 0.0 0.0 0.00 0.00 0.00 86 1013.3
20260502040655 52 327 0.0 0.0 0.00 0.00 0.00 83 1013.3
20260502040153 52 327 0.0 0.0 0.00 0.00 0.00 83 1013.7
20260502035649 53 327 0.0 0.0 0.00 0.00 0.00 82 1013.3
20260502035146 53 327 0.0 0.0 0.00 0.00 0.00 83 1013.7
20260502034643 53 327 0.0 2.0 0.00 0.00 0.00 85 1013.7
20260502034142 53 327 1.0 4.0 0.00 0.00 0.00 85 1013.7
20260502033639 53 327 0.0 0.0 0.00 0.00 0.00 85 1013.7
20260502033137 53 327 0.0 0.0 0.00 0.00 0.00 83 1013.7
20260502032633 53 327 3.0 5.0 0.00 0.00 0.00 84 1013.7
20260502032129 53 327 1.0 3.0 0.00 0.00 0.00 86 1013.3
20260502031627 53 327 0.0 0.0 0.00 0.00 0.00 84 1013.3
20260502031124 53 327 0.0 0.0 0.00 0.00 0.00 83 1013.3
20260502030623 52 327 0.0 3.0 0.00 0.00 0.00 84 1013.3
20260502030121 52 327 4.0 4.0 0.00 0.00 0.00 87 1013.3
20260502025618 52 327 0.0 0.0 0.00 0.00 0.00 86 1013.3
20260502025116 52 327 0.0 0.0 0.00 0.00 0.00 86 1013.0
20260502024614 52 327 0.0 0.0 0.00 0.00 0.00 85 1013.3
20260502024111 52 327 0.0 0.0 0.00 0.00 0.00 85 1013.3
20260502023609 52 327 0.0 0.0 0.00 0.00 0.00 85 1013.0
20260502023106 52 327 0.0 0.0 0.00 0.00 0.00 84 1013.0
20260502022603 52 327 0.0 0.0 0.00 0.00 0.00 84 1012.6
20260502022100 51 327 0.0 0.0 0.00 0.00 0.00 82 1012.6
20260502021557 51 327 0.0 0.0 0.00 0.00 0.00 84 1012.6
20260502021054 51 327 0.0 0.0 0.00 0.00 0.00 84 1012.6
20260502020552 51 327 0.0 2.0 0.00 0.00 0.00 82 1012.6
20260502020049 52 327 0.0 0.0 0.00 0.00 0.00 82 1012.6
20260502015546 52 327 0.0 0.0 0.00 0.00 0.00 80 1012.6
20260502015042 52 327 0.0 0.0 0.00 0.00 0.00 79 1012.6
20260502014539 52 327 0.0 0.0 0.00 0.00 0.00 81 1012.6
20260502014037 51 327 0.0 0.0 0.00 0.00 0.00 83 1012.6
20260502013532 52 327 0.0 0.0 0.00 0.00 0.00 82 1012.6
20260502013029 52 327 0.0 0.0 0.00 0.00 0.00 82 1012.6
20260502012526 52 327 0.0 0.0 0.00 0.00 0.00 80 1012.3
20260502012024 53 327 0.0 3.0 0.00 0.00 0.00 79 1012.3
20260502011520 53 327 0.0 4.0 0.00 0.00 0.00 79 1012.3
20260502011016 53 302 2.0 3.0 0.00 0.00 0.00 79 1012.3
20260502010514 53 302 0.0 0.0 0.00 0.00 0.00 79 1012.3
20260502010010 53 302 0.0 0.0 0.00 0.00 0.00 78 1012.3
20260502005508 53 302 0.0 0.0 0.00 0.00 0.00 78 1012.0
20260502005006 54 302 0.0 0.0 0.00 0.00 0.00 76 1012.0
20260502004501 54 302 0.0 1.0 0.00 0.00 0.00 76 1012.0
20260502003958 54 302 0.0 0.0 0.00 0.00 0.00 74 1012.0
20260502003455 55 302 0.0 2.0 0.00 0.00 0.00 73 1012.0
20260502002951 55 302 0.0 3.0 0.00 0.00 0.00 73 1011.6
20260502002449 55 231 0.0 0.0 0.00 0.00 0.00 72 1011.6
20260502001947 56 231 0.0 0.0 0.00 0.00 0.00 71 1011.6
20260502001444 57 231 0.0 0.0 0.00 0.00 0.00 69 1011.3
20260502000941 57 231 0.0 0.0 0.00 0.00 0.00 68 1011.3
20260502000440 58 231 0.0 0.0 0.00 0.00 0.00 66 1011.3
20260501235936 59 231 0.0 0.0 0.00 0.00 0.00 63 1011.3
20260501235431 60 231 0.0 0.0 0.00 0.00 0.00 61 1011.3
20260501234926 61 231 0.0 0.0 0.00 0.00 0.00 53 1011.3
20260501234423 62 231 0.0 0.0 0.00 0.00 0.00 51 1011.3
20260501233922 63 231 0.0 0.0 0.00 0.00 0.00 48 1011.3
20260501233420 63 231 0.0 0.0 0.00 0.00 0.00 48 1011.3
20260501232915 64 231 0.0 0.0 0.00 0.00 0.00 46 1011.3
20260501232413 64 231 1.0 2.0 0.00 0.00 0.00 45 1011.3
20260501231909 64 231 1.0 4.0 0.00 0.00 0.00 45 1011.3
20260501231408 64 180 4.0 8.0 0.00 0.00 0.00 45 1011.3
20260501230906 65 172 3.0 4.0 0.00 0.00 0.00 44 1010.9
20260501230404 65 201 4.0 6.0 0.00 0.00 0.00 44 1011.3
20260501225901 66 234 1.0 2.0 0.00 0.00 0.00 43 1010.9
20260501225359 66 183 4.0 6.0 0.00 0.00 0.00 42 1010.9
20260501224854 66 219 4.0 7.0 0.00 0.00 0.00 41 1010.9
20260501224352 66 176 5.0 9.0 0.00 0.00 0.00 41 1010.9
20260501223848 66 191 4.0 7.0 0.00 0.00 0.00 42 1010.9
20260501223344 66 224 5.0 9.0 0.00 0.00 0.00 41 1010.9
20260501222840 66 196 3.0 5.0 0.00 0.00 0.00 40 1010.9
20260501222338 67 180 5.0 8.0 0.00 0.00 0.00 38 1010.9
20260501221834 67 193 4.0 5.0 0.00 0.00 0.00 39 1010.9
20260501221332 67 180 2.0 5.0 0.00 0.00 0.00 40 1010.9
20260501220830 67 193 3.0 6.0 0.00 0.00 0.00 39 1010.9